Location: Mohawk View
(42.7837°N, 73.7885°W)
Time: 13:12:23
(UTC+00:00)

Cosmos 1766 Rocket - Pass Details

Date: 17 June 2021
Orbit: 604 x 633 km, 82.5° (Epoch: 26 July)

Event Time Altitude Azimuth Distance (km) Brightness Sun altitude
Exits shadow 08:35:17 - 215° (SW) 2,188 5.7 -6.8°
Reaches altitude 10° 08:35:48 10° 218° (SW) 1,997 5.5 -6.8°
Maximum altitude 08:39:52 35° 284° (WNW) 1,020 4.4 -6.2°
Drops below altitude 10° 08:43:59 10° 351° (N) 2,023 6.6 -5.6°
Sets 08:46:25 0° 0° (N) 2,938 7.7 -5.3°
